Regional Weather Roundup
Issued by NWS

Home | Current Version | Previous Version | Text Only | Print | Product List | Glossary On
Versions: 1 2 3 4 5 6 7 8 9 10 11 12 13 14 15 16 17 18 19 20 21 22 23 24 25 26 27 28 29 30 31 32 33 34 35 36 37 38 39 40 41 42 43 44 45 46 47 48 49 50
000
ASUS44 KJAN 291410
RWRMS

MISSISSIPPI HOURLY WEATHER ROUNDUP
NATIONAL WEATHER SERVICE JACKSON MS
800 AM CST MON DEC 29 2014

NOTE: "FAIR: INDICATES FEW OR NO CLOUDS BELOW 12,000 FEET WITH NO
SIGNIFICANT WEATHER AND/OR OBSTRUCTIONS TO VISIBILITY.

MSZ001>002-007>008-010>013-018>021-025>028-034>036-291500-
NORTHWEST MISSISSIPPI

CITY           SKY/WX    TMP DP  RH WIND       PRES   REMARKS
CLARKSDALE     CLOUDY    37  37 100 N10       30.23R WCI  30
CLEVELAND      CLOUDY    38  38 100 N9        30.21R FOG     WCI  32
GREENWOOD      CLOUDY    41  40  96 N8        30.20R
GREENVILLE     CLOUDY    40  38  93 N10       30.20S FOG     WCI  33
GRENADA        CLOUDY    41  37  87 CALM      30.21R
OLIVE BRANCH   CLOUDY    34  34 100 NE6       30.20R FOG     WCI  29
OXFORD         CLOUDY    36  36 100 N6        30.21R FOG     WCI  31
TUNICA         CLOUDY    37  36  93 N8        30.23R FOG     WCI  31
$$

MSZ003>006-009-014>017-022>024-029>033-037>039-291500-
NORTHEAST MISSISSIPPI

CITY           SKY/WX    TMP DP  RH WIND       PRES   REMARKS
COLUMBUS AFB   DRZL/FOG  45  45 100 N7        30.17R VSB 1
GOLDN TRIANGLE CLOUDY    45  43  93 N7        30.16R FOG
STARKVILLE     LGT RAIN  43  43 100 CALM      30.17R
TUPELO         CLOUDY    41  38  89 NE13      30.18R
$$

MSZ040-058-291500-
CENTRAL MISSISSIPPI

CITY           SKY/WX    TMP DP  RH WIND       PRES   REMARKS
JACKSON INTL   DRIZZLE   45  45 100 N6        30.17R
JACKSON HAWKNS CLOUDY    45  43  93 N5        30.17R FOG
MERIDIAN KEY   CLOUDY    47  46  97 NW3       30.15R
MERIDIAN NAS   CLOUDY    47  45  93 N6        30.16R
RAYMOND        CLOUDY    45  39  81 N5        30.18R HAZE
VICKSBURG      CLOUDY    44  42  93 N9        30.20R FOG
$$

MSZ059>079-291500-
SOUTH MISSISSIPPI

CITY           SKY/WX    TMP DP  RH WIND       PRES   REMARKS
HATTIESBURG    CLOUDY    52  51  97 NW3       30.14S
MCCOMB         CLOUDY    48  46  93 NW7       30.14R
NATCHEZ        CLOUDY    45  43  93 N8        30.17R
PINE BELT      CLOUDY    52  46  82 CALM      30.14S
$$

MSZ080>082-291500-
COASTAL MISSISSIPPI

CITY           SKY/WX    TMP DP  RH WIND       PRES   REMARKS
BAY ST LOUIS   FOG       54  52  94 N8        30.15R VSB 1
BILOXI         CLOUDY    57  57 100 N6        30.14R
PASCAGOULA     CLOUDY    57  56  96 N5        30.12R
GULFPORT       CLOUDY    57  55  93 NW7       30.14R
$$


USA.gov is the U.S. government's official web portal to all federal, state and local government web resources and services.